A/2019 G4

Japanese version
Home page
Updated on November 9, 2019

---------------------------------------------------------------------

* Profile

Discovery Date April 9, 2019
Magnitude 21.4 mag
Discoverer Pan-STARRS 1 telescope (Haleakala)

* Orbital Elements

Epoch 2018 Aug. 30.0 TT = JDT 2458360.5
T 2018 Sept. 15.19104 TT                                Williams
q   5.8581192            (2000.0)            P               Q
z  +0.0000640      Peri.  287.83776     -0.74012723     -0.44373994
 +/-0.0000334      Node   130.47575     +0.04151625     +0.71979583
e   0.9996253      Incl.  138.37554     -0.67118410     +0.53384345
H   13.0
From 21 observations 2019 Apr. 9-Oct. 27, mean residual 0".3.

* Magnitudes Graph

        H = 13.0  G = 0.15

---------------------------------------------------------------------

The orbital elements are published on M.P.E.C. 2019-V116.
The magnitudes graphs are made with Comet for Windows.

---------------------------------------------------------------------

Copyright(C) Seiichi Yoshida (comet@aerith.net). All rights reserved.